Tracking 22454 objects as of 5-Mar-2021
HD Live streaming from Space Station
objects crossing your sky now

FREGAT DEB

Track FREGAT DEB now!
10-day predictions


NORAD ID: 47333
Int'l Code: 2011-037NQ
Perigee: 680.9 km
Apogee: 3,316.5 km
Inclination: 51.4 °
Period: 127.0 minutes
Semi major axis: 8369 km
RCS: Unknown
Launch date: July 18, 2011
Source: Commonwealth of Independent States (former USSR) (CIS)
Launch site: TYURATAM MISSILE AND SPACE COMPLEX (TTMTR)

Note: This is SATELLITE DEBRIS
aabbcc
Your satellite tracking list
Your tracking list is empty




NASA's NSSDC Master Catalog

Two Line Element Set (TLE):
1 47333U 11037NQ  21026.04876866  .00011402  00000-0  14932-1 0  9996
2 47333  51.4174 160.1184 1574494 116.3370 260.7543 11.33807442  2204
Source of the keplerian elements: AFSPC